EN

Hourly Weather Lagutniki

Today, 1 August, Sunday

Time Temperature Precipitation Wind Pressure Humidity
00:00 +28°C° 0 mm 2 mps 755 mmHg 51%
01:00 +28°C° 0 mm 2 mps 755 mmHg 52%
02:00 +27°C° 0 mm 2 mps 755 mmHg 53%
03:00 +27°C° 0 mm 3 mps 755 mmHg 55%
04:00 +27°C° 0 mm 2 mps 755 mmHg 53%
05:00 +27°C° 0 mm 2 mps 755 mmHg 52%
06:00 +27°C° 0 mm 1 mps 756 mmHg 51%
07:00 +30°C° 0 mm 1 mps 756 mmHg 43%
08:00 +32°C° 0 mm 1 mps 756 mmHg 35%
09:00 +35°C° 0 mm 1 mps 756 mmHg 27%
10:00 +36°C° 0 mm 1 mps 756 mmHg 23%
11:00 +38°C° 0 mm 2 mps 756 mmHg 20%
12:00 +39°C° 0 mm 2 mps 755 mmHg 17%
13:00 +39°C° 0 mm 3 mps 755 mmHg 17%
14:00 +39°C° 0 mm 3 mps 755 mmHg 16%
15:00 +41°C° 0 mm 4 mps 755 mmHg 16%
16:00 +39°C° 0 mm 3 mps 755 mmHg 17%
17:00 +39°C° 0 mm 3 mps 755 mmHg 17%
18:00 +38°C° 0 mm 3 mps 755 mmHg 18%
19:00 +36°C° 0 mm 3 mps 755 mmHg 21%
20:00 +34°C° 0 mm 3 mps 755 mmHg 24%
21:00 +31°C° 0 mm 3 mps 755 mmHg 27%
22:00 +30°C° 0 mm 3 mps 755 mmHg 30%
23:00 +29°C° 0 mm 3 mps 755 mmHg 32%

Tomorrow, 2 August, Monday

Time Temperature Precipitation Wind Pressure Humidity
00:00 +28°C° 0 mm 3 mps 755 mmHg 35%
01:00 +28°C° 0 mm 3 mps 755 mmHg 36%
02:00 +28°C° 0 mm 3 mps 755 mmHg 38%
03:00 +27°C° 0 mm 3 mps 755 mmHg 40%
04:00 +27°C° 0 mm 2 mps 755 mmHg 38%
05:00 +28°C° 0 mm 2 mps 756 mmHg 37%
06:00 +28°C° 0 mm 2 mps 756 mmHg 36%
07:00 +31°C° 0 mm 2 mps 756 mmHg 30%
08:00 +33°C° 0 mm 1 mps 756 mmHg 25%
09:00 +36°C° 0 mm 1 mps 756 mmHg 19%
10:00 +38°C° 0 mm 2 mps 756 mmHg 18%
11:00 +39°C° 0 mm 2 mps 756 mmHg 17%
12:00 +40°C° 0 mm 3 mps 755 mmHg 15%
13:00 +42°C° 0 mm 3 mps 755 mmHg 15%
14:00 +42°C° 0 mm 3 mps 755 mmHg 15%
15:00 +42°C° 0 mm 4 mps 754 mmHg 14%
16:00 +40°C° 0 mm 3 mps 754 mmHg 15%
17:00 +40°C° 0 mm 3 mps 754 mmHg 15%
18:00 +39°C° 0 mm 3 mps 754 mmHg 16%
19:00 +37°C° 0 mm 3 mps 754 mmHg 20%
20:00 +35°C° 0 mm 4 mps 754 mmHg 24%
21:00 +33°C° 0 mm 4 mps 754 mmHg 29%
22:00 +32°C° 0 mm 4 mps 754 mmHg 31%
23:00 +31°C° 0 mm 3 mps 754 mmHg 32%

Day after tomorrow, 3 August, Tuesday

Time Temperature Precipitation Wind Pressure Humidity
00:00 +30°C° 0 mm 3 mps 754 mmHg 34%
01:00 +29°C° 0 mm 2 mps 754 mmHg 36%
02:00 +29°C° 0 mm 2 mps 754 mmHg 37%
03:00 +28°C° 0 mm 1 mps 754 mmHg 39%
04:00 +28°C° 0 mm 1 mps 755 mmHg 39%
05:00 +28°C° 0 mm 1 mps 755 mmHg 39%
06:00 +29°C° 0 mm 1 mps 755 mmHg 40%
07:00 +31°C° 0 mm 1 mps 755 mmHg 35%
08:00 +35°C° 0 mm 2 mps 755 mmHg 30%
09:00 +37°C° 0 mm 2 mps 755 mmHg 26%
10:00 +39°C° 0 mm 2 mps 755 mmHg 23%
11:00 +40°C° 0 mm 2 mps 754 mmHg 21%
12:00 +41°C° 0 mm 2 mps 754 mmHg 19%
13:00 +42°C° 0 mm 2 mps 754 mmHg 18%
14:00 +43°C° 0 mm 3 mps 753 mmHg 17%
15:00 +44°C° 0 mm 3 mps 753 mmHg 16%
16:00 +41°C° 0 mm 2 mps 753 mmHg 18%
17:00 +40°C° 0 mm 2 mps 753 mmHg 19%
18:00 +39°C° 0 mm 2 mps 753 mmHg 20%
19:00 +38°C° 0 mm 2 mps 753 mmHg 23%
20:00 +36°C° 0 mm 3 mps 754 mmHg 25%
21:00 +35°C° 0 mm 3 mps 754 mmHg 28%
22:00 +34°C° 0 mm 4 mps 754 mmHg 33%
23:00 +33°C° 0 mm 4 mps 754 mmHg 38%

4 August, Wednesday

Time Temperature Precipitation Wind Pressure Humidity
00:00 +32°C° 0 mm 5 mps 755 mmHg 43%
01:00 +30°C° 0 mm 5 mps 755 mmHg 46%
02:00 +29°C° 0 mm 6 mps 755 mmHg 50%
03:00 +28°C° 0 mm 6 mps 755 mmHg 54%
04:00 +27°C° 0 mm 5 mps 756 mmHg 58%
05:00 +27°C° 0 mm 4 mps 756 mmHg 62%
06:00 +26°C° 0 mm 3 mps 757 mmHg 66%
07:00 +28°C° 0 mm 3 mps 757 mmHg 60%
08:00 +29°C° 0 mm 4 mps 757 mmHg 54%
09:00 +32°C° 0 mm 4 mps 758 mmHg 48%
10:00 +33°C° 0 mm 4 mps 757 mmHg 43%
11:00 +35°C° 0 mm 4 mps 757 mmHg 37%
12:00 +36°C° 0 mm 4 mps 757 mmHg 32%
13:00 +36°C° 0 mm 4 mps 757 mmHg 30%
14:00 +37°C° 0 mm 4 mps 757 mmHg 28%
15:00 +37°C° 0 mm 4 mps 757 mmHg 26%
16:00 +37°C° 0 mm 5 mps 757 mmHg 26%
17:00 +36°C° 0 mm 5 mps 757 mmHg 26%
18:00 +36°C° 0 mm 5 mps 757 mmHg 26%
19:00 +34°C° 0 mm 5 mps 758 mmHg 29%
20:00 +32°C° 0 mm 5 mps 758 mmHg 32%
21:00 +29°C° 0 mm 5 mps 758 mmHg 36%
22:00 +28°C° 0 mm 4 mps 759 mmHg 38%
23:00 +27°C° 0 mm 4 mps 759 mmHg 41%

5 August, Thursday

Time Temperature Precipitation Wind Pressure Humidity
00:00 +26°C° 0 mm 4 mps 759 mmHg 43%
01:00 +26°C° 0 mm 4 mps 759 mmHg 45%
02:00 +26°C° 0 mm 3 mps 759 mmHg 47%
03:00 +25°C° 0 mm 3 mps 759 mmHg 50%
04:00 +25°C° 0 mm 3 mps 760 mmHg 51%
05:00 +25°C° 0 mm 2 mps 760 mmHg 52%
06:00 +25°C° 0 mm 2 mps 760 mmHg 53%
07:00 +27°C° 0 mm 3 mps 760 mmHg 46%
08:00 +29°C° 0 mm 4 mps 760 mmHg 40%
09:00 +32°C° 0 mm 4 mps 760 mmHg 33%
10:00 +33°C° 0 mm 4 mps 760 mmHg 30%
11:00 +33°C° 0 mm 4 mps 760 mmHg 27%
12:00 +34°C° 0 mm 4 mps 760 mmHg 24%
13:00 +35°C° 0 mm 4 mps 759 mmHg 23%
14:00 +35°C° 0 mm 4 mps 759 mmHg 22%
15:00 +35°C° 0 mm 5 mps 759 mmHg 21%
16:00 +35°C° 0 mm 4 mps 759 mmHg 22%
17:00 +35°C° 0 mm 4 mps 759 mmHg 22%
18:00 +34°C° 0 mm 4 mps 758 mmHg 22%
19:00 +31°C° 0 mm 3 mps 758 mmHg 26%
20:00 +29°C° 0 mm 3 mps 758 mmHg 30%
21:00 +28°C° 0 mm 3 mps 758 mmHg 34%
22:00 +27°C° 0 mm 3 mps 758 mmHg 34%
23:00 +26°C° 0 mm 3 mps 758 mmHg 35%

6 August, Friday

Time Temperature Precipitation Wind Pressure Humidity
00:00 +26°C° 0 mm 3 mps 758 mmHg 36%
01:00 +25°C° 0 mm 3 mps 758 mmHg 36%
02:00 +25°C° 0 mm 3 mps 758 mmHg 36%
03:00 +25°C° 0 mm 3 mps 758 mmHg 37%
04:00 +25°C° 0 mm 3 mps 758 mmHg 37%
05:00 +25°C° 0 mm 3 mps 758 mmHg 38%
06:00 +25°C° 0 mm 3 mps 758 mmHg 39%
07:00 +27°C° 0 mm 4 mps 758 mmHg 33%
08:00 +30°C° 0 mm 5 mps 758 mmHg 28%
09:00 +34°C° 0 mm 6 mps 758 mmHg 22%
10:00 +35°C° 0 mm 6 mps 757 mmHg 21%
11:00 +36°C° 0 mm 6 mps 757 mmHg 19%
12:00 +38°C° 0 mm 6 mps 756 mmHg 17%
13:00 +39°C° 0 mm 6 mps 756 mmHg 17%
14:00 +39°C° 0 mm 6 mps 756 mmHg 16%
15:00 +40°C° 0 mm 6 mps 755 mmHg 16%
16:00 +39°C° 0 mm 6 mps 755 mmHg 16%
17:00 +39°C° 0 mm 6 mps 755 mmHg 17%
18:00 +37°C° 0 mm 5 mps 755 mmHg 17%
19:00 +35°C° 0 mm 5 mps 755 mmHg 20%
20:00 +33°C° 0 mm 5 mps 755 mmHg 23%
21:00 +30°C° 0 mm 4 mps 755 mmHg 25%
22:00 +30°C° 0 mm 4 mps 755 mmHg 26%
23:00 +29°C° 0 mm 5 mps 755 mmHg 26%
Show more